Regional Weather Roundup
Issued by NWS

Home | Current Version | Previous Version | Text Only | Print | Product List | Glossary On
Versions: 1 2 3 4 5 6 7 8 9 10 11 12 13 14 15 16 17 18 19 20 21 22 23 24 25 26 27 28 29 30 31 32 33 34 35 36 37 38 39 40 41 42 43 44 45 46 47 48 49 50
000
ASUS43 KMPX 312010
RWRMN
WEATHER ROUNDUP FOR MINNESOTA
NATIONAL WEATHER SERVICE TWIN CITIES/CHANHASSEN MN
300 PM CDT TUE MAY 31 2016


NOTE: "FAIR" INDICATES FEW OR NO CLOUDS BELOW 12,000 FEET WITH NO
SIGNIFICANT WEATHER AND/OR OBSTRUCTIONS TO VISIBILITY. N/A MEANS
CURRENT SKY AND/OR WEATHER CONDITIONS ARE NOT AVAILABLE.

MNZ060>063-068>070-312100-
   Twin Cities Metro

CITY           SKY/WX    TMP DP  RH WIND       PRES   REMARKS
TWIN CITIES    LGT RAIN  70  61  73 W10       29.85F
ST PAUL        LGT RAIN  70  62  76 SW6       29.85F
CRYSTAL        CLOUDY    69  61  75 W9        29.83F
EDEN PRAIRIE   CLOUDY    69  60  73 W8        29.85F
SOUTH ST PAUL  CLOUDY    70  64  80 SW6       29.85F
LAKE ELMO      FAIR      70  63  78 SW7       29.86F
$$
MNZ001>005-007-008-013>017-022>024-027-028-312100-
   Northwest Minnesota

CITY           SKY/WX    TMP DP  RH WIND       PRES   REMARKS
BEMIDJI        CLOUDY    64  57  80 SE9       29.76F
HALLOCK        PTSUNNY   68  61  77 S15       29.66F
ROSEAU         CLOUDY    55  52  88 SE16      29.74F
WARROAD        CLOUDY    54  50  87 E13       29.76F
THIEF RVR FALL PTSUNNY   66  52  59 SW17      29.72F
CROOKSTON      CLOUDY    66  52  59 SW21      29.72F
FOSSTON        MOSUNNY   66  57  72 S20G26    29.74S
DETROIT LAKES  MOSUNNY   66  50  55 SW17G24   29.78F
MOORHEAD       MOSUNNY   66  48  52 SW15G21   29.75F
PARK RAPIDS    MOSUNNY   69  52  54 SW14      29.77F
MAHNOMEN       MOCLDY    65  51  61 SW16G26   29.75S
$$
MNZ006-009>011-018-025>026-312100-
   North Central Minnesota

CITY           SKY/WX    TMP DP  RH WIND       PRES   REMARKS
BAUDETTE         N/A     52  49  89 SE12G21   29.80S
FLAG ISLAND    DRIZZLE   52  50  93 E7G18     29.79F
INTL FALLS     CLOUDY    50  48  93 E15       29.84F FOG
WASKISH        CLOUDY    55  54  94 SE12      29.79F
BIG FORK       CLOUDY    54  52  94 S10G16    29.83F
LONGVILLE      CLOUDY    63  57  82 SE8       29.81F
GRAND RAPIDS   CLOUDY    52  51  97 E9        29.86S
CRANE LAKE     HVY RAIN  48  48 100 SE3       29.90
ORR            RAIN      50  46  87 CALM      29.84F
COOK           DRIZZLE   52  48  87 E6        29.87F
WALKER         FAIR      64  58  80 SE3       29.78F
$$
MNZ012-019>021-037-312100-
   Northeast Minnesota

CITY           SKY/WX    TMP DP  RH WIND       PRES   REMARKS
DULUTH         LGT RAIN  46  45  96 E9        29.90F
ELY            LGT RAIN  48  46  93 SE16G24   29.90F
HIBBING        CLOUDY    50  49  96 SE12      29.87F FOG
EVELETH        CLOUDY    50  48  93 E6        29.89F
DULUTH HARBOR  CLOUDY    45  43  93 NE22G30   29.93F
TWO HARBORS    LGT RAIN  46  43  87 NE10      29.92S
SILVER BAY     RAIN      45  43  93 NE12G21   29.93F
GRAND MARAIS     N/A     48  40  73 NE15G29   30.00F
G MARAIS ARPRT RAIN      48  39  71 E16G22    29.99F
$$
MNZ029>031-032-039>041-046>048-054>057-064-312100-
   West Central Minnesota

CITY           SKY/WX    TMP DP  RH WIND       PRES   REMARKS
FERGUS FALLS   PTSUNNY   66  48  52 W20G25    29.76F
WHEATON        SUNNY     72  50  46 SW18G25   29.82F
MORRIS         MOSUNNY   72  48  43 W15G24    29.82S
ALEXANDRIA     MOSUNNY   68  49  50 SW16      29.83F
ELBOW LAKE     PTSUNNY   68  50  52 SW12G21   29.81F
WADENA         MOSUNNY   66  52  59 SW18      29.79F
GLENWOOD       MOSUNNY   72  52  49 SW14G23   29.84S
APPLETON       SUNNY     72  43  35 W17G25    29.83S
BENSON         PTSUNNY   70  48  46 W10G22    29.84S
ORTONVILLE     MOSUNNY   70  45  40 SW13G22   29.82F
MADISON        SUNNY     70  45  40 W14       29.84F
WILLMAR        FAIR      72  55  56 SW17      29.86F
$$
MNZ033>034-036-042>043-049>051-058-059-312100-
   Central Minnesota

CITY           SKY/WX    TMP DP  RH WIND       PRES   REMARKS
ST CLOUD       CLOUDY    71  59  65 SW13      29.83F
SAUK CENTRE    FAIR      69  52  55 SW9       29.83F
PAYNESVILLE    MOSUNNY   71  54  54 SW12      29.85S
AITKIN         CLOUDY    64  55  72 E6        29.82S
PINE RIVER     PTSUNNY   64  59  82 E8        29.83F
BRAINERD       PTSUNNY   70  57  63 S9        29.81F
STAPLES        SUNNY     70  52  52 SW14      29.80F
LONG PRAIRIE   FAIR      70  50  49 S9G21     29.83F
LITTLE FALLS   CLOUDY    70  54  56 SW8       29.83S
LITCHFIELD     MOSUNNY   72  57  60 W7        29.85F
BUFFALO        MOSUNNY   70  57  63 SW7       29.86F
MAPLE LAKE     CLOUDY    72  60  66 SW6       29.86F
HUTCHINSON     MOSUNNY   73  59  61 SW8G16    29.86F
$$
MNZ037-044-045-052-053-312100-
   East Central Minnesota

CITY           SKY/WX    TMP DP  RH WIND       PRES   REMARKS
PRINCETON      CLOUDY    72  61  68 S8        29.84F
MORA           PTSUNNY   64  59  82 SW8       29.85F
CAMBRIDGE      DRIZZLE   70  59  68 S8        29.82F
RUSH CITY      CLOUDY    69  62  77 S6        29.84F
MOOSE LAKE     CLOUDY    46  43  87 E7        29.86F
HINCKLEY       MOCLDY    70  64  83 SE6       29.84F
CLOQUET        CLOUDY    46  45  93 E14       29.89F
MCGREGOR       CLOUDY    54  52  94 E3        29.87R
$$
MNZ071>073-080-081-089-090-097-098-312100-
   Southwest Minnesota

CITY           SKY/WX    TMP DP  RH WIND       PRES   REMARKS
MONTEVIDEO     MOSUNNY   73  48  40 W14G20    29.86S
GRANITE FALLS  SUNNY     73  52  48 SW18      29.87S
CANBY          SUNNY     73  48  41 W17       29.86F
MARSHALL       SUNNY     71  46  40 W18G26    29.86F
REDWOOD FALLS  MOSUNNY   72  51  47 W14G22    29.86F
OLIVIA         SUNNY     70  52  52 SW9       29.85F
PIPESTONE      SUNNY     68  46  45 W8G21     29.90S
WINDOM         MOSUNNY   72  54  53 W9        29.89S
WORTHINGTON    SUNNY     69  51  52 W15       29.91F
JACKSON        PTSUNNY   70  50  49 W12G17    29.91S
TRACY          SUNNY     71  51  50 W7        29.89S
SLAYTON        SUNNY     69  47  44 W12G20    29.91S
$$
MNZ065>067-074>077-082>085-091>093-312100-
   South Central Minnesota

CITY           SKY/WX    TMP DP  RH WIND       PRES   REMARKS
MANKATO        CLOUDY    66  59  77 W9        29.88F
NEW ULM        MOSUNNY   70  55  60 W12G17    29.87F
ST JAMES       PTSUNNY  N/A N/A N/A SW10G16   29.89S
FAIRMONT       CLOUDY    68  57  68 W9        29.89F
GLENCOE        CLOUDY    71  61  71 SW6       29.85F
FARIBAULT      PTSUNNY   70  61  73 SW14      29.88S
OWATONNA       CLOUDY    70  59  68 W15       29.89R
WASECA         DRIZZLE   64  61  88 W12       29.90F
ALBERT LEA     CLOUDY    70  59  68 W5        29.89S
$$
MNZ078>079-086>088-094>096-312100-
   Southeast Minnesota

CITY           SKY/WX    TMP DP  RH WIND       PRES   REMARKS
ROCHESTER      TSTM      64  61  90 W25G33    29.89R VSB 1
RED WING       CLOUDY    73  64  73 W5        29.84S THUNDER
STANTON        CLOUDY    71  63  74 W9        29.85S
DODGE CENTER   LGT RAIN  66  63  88 SW9       29.90R
WINONA         MOSUNNY   81  57  44 SE10      29.82F
AUSTIN         RAIN      64  61  88 CALM      29.90S
PRESTON        CLOUDY    66  60  81 CALM      29.87F
$$
ABBREVIATIONS USED IN REMARKS
   TC - TEMPERATURES IN CELSIUS
  WCI - WIND CHILL INDEX
   HX - HEAT INDEX
  VSB - VISIBILITY
$$




USA.gov is the U.S. government's official web portal to all federal, state and local government web resources and services.